Other Public Products
Issued by NWS Grand Forks, ND

Home | Current Version | Previous Version | Text Only | Print | Product List | Glossary Off
Versions: 1 2 3 4 5 6 7 8 9 10 11 12 13 14 15 16 17 18 19 20 21 22 23 24 25 26 27 28 29 30 31 32 33 34 35 36 37 38 39 40 41 42 43 44 45 46 47 48 49 50

000
FPUS83 KFGF 161110
OPUFGF
PRAIRIE TO PINES WEATHER ROUNDUP
NATIONAL WEATHER SERVICE EASTERN NORTH DAKOTA/GRAND FORKS ND
600 AM CDT WED APR 16 2014

 **SATELLITE DATA USED TO AUGMENT SKY COVER AT AUTOMATED STATIONS**
 *****  WEATHER ACROSS EASTERN NORTH DAKOTA  *****

CITY           SKY/WX    TMP DP  RH WIND       PRES   REMARKS
GRAND FORKS    CLOUDY    28  13  53 E14       30.00S WCI  17
GRAND FORKS AF CLOUDY    27  13  55 E10       30.04S WCI  17
GRAND CITY NWS   N/A     28 N/A N/A NE9         N/A  WCI  20
BUXTON         NOT AVBL
DEVILS LAKE    CLOUDY    23  14  68 E14       30.00R WCI  11
FARGO          LGT SNOW  28  24  85 E15       29.97R FOG     WCI  16
WAHPETON ARPT  CLOUDY    30  23  74 E17       29.92S WCI  18
$$

 *****  WEATHER ACROSS CENTRAL AND WESTERN NORTH DAKOTA  *****

CITY           SKY/WX    TMP DP  RH WIND       PRES   REMARKS
JAMESTOWN      CLOUDY    27  24  89 E23G29    29.89S WCI  12
BISMARCK       CLOUDY    27  21  78 NE15      29.87R WCI  15
MINOT          LGT SNOW  23  19  85 NE15      29.97R FOG     WCI  10
MINOT AFB      LGT SNOW  23  22  96 E20G25    29.98R VSB 3/4 WCI   8
GARRISON         N/A     25  21  85 E12G20    29.91R WCI  14
WILLISTON      CLOUDY    23  20  88 E14       29.95R WCI  11
DICKINSON      PTCLDY    23  17  78 NE12      29.80R WCI  12
HETTINGER      MOCLDY    25  17  72 NE17      29.76R WCI  12
$$

 *****  OTHER OBSERVATIONS NORTHEAST NORTH DAKOTA  *****

CITY           SKY/WX    TMP DP  RH WIND       PRES   REMARKS
WALHALLA       FAIR      25  10  54 NE10      30.12R WCI  15
LANGDON        CLOUDY    23  12  63 NE13G22   30.04S WCI  11
CAVALIER       FAIR      25  14  63 NE10      30.10S WCI  15
GRAFTON        FAIR      27  10  50 E15       30.08R WCI  15
CANDO          CLOUDY    23  16  74 NE12      30.03R WCI  12
FORT TOTTEN      N/A     23  19  84 E9        29.95  WCI  13
ROLLA          CLOUDY    19  19 100 NE15      30.05R WCI   5
RUGBY          LGT SNOW  23  19  86 E20       29.99S WCI   8
 ***** THE ABOVE OBSERVATIONS ARE NON NWS ARE NOT QUALITY
        CONTROLLED AND MAY MIS-REPORT RAIN FOR SNOW...
$$

 *****  OTHER OBSERVATIONS SOUTHEAST NORTH DAKOTA *****

CITY           SKY/WX    TMP DP  RH WIND       PRES   REMARKS
COOPERSTOWN    LGT SNOW  25  25 100 E17G25    29.95S WCI  11
VALLEY CITY    NOT AVBL
OAKES          FAIR      27  25  93 E25G36    29.83S WCI  11
GWINNER        CLOUDY    30  28  93 E21       29.87F WCI  17
BUFFALO        NOT AVBL
WYNDMERE       NOT AVBL
 ***** THE ABOVE OBSERVATIONS ARE NON NWS ARE NOT QUALITY
       CONTROLLED AND MAY MIS-REPORT RAIN FOR SNOW...
$$

  *****  WEATHER ACROSS NORTHERN MINNESOTA  *****

CITY           SKY/WX    TMP DP  RH WIND       PRES   REMARKS
FLAG ISLAND    PTCLDY    18   1  49 E7        30.15S WCI   8
WARROAD        FAIR      16   9  73 NE8       30.13S WCI   5
ROSEAU         CLEAR     21  10  63 E10       30.12S WCI  10
HALLOCK        CLOUDY    25  10  54 E13       30.10R WCI  13
THF RVR FALLS  CLOUDY    25   9  50 NE12      30.06R WCI  14
HALSTAD          N/A     30  18  60 SE16        N/A  WCI  18
FOSSTON        CLOUDY    27   7  43 E9        30.02R WCI  17
BAUDETTE       MOCLDY    18   6  59 E7        30.13R WCI   9
WASKISH        PTCLDY    19   9  63 NE8       30.09S WCI   9
CROOKSTON      CLOUDY    28  10  47 E12       30.05R WCI  18
$$
  *****  WEATHER ACROSS CENTRAL AND WEST MINNESOTA  *****

CITY           SKY/WX    TMP DP  RH WIND       PRES   REMARKS
BEMIDJI        CLOUDY    25   7  45 E9        30.03R WCI  16
PARK RAPIDS    CLOUDY    28   9  44 E14G24    29.99R WCI  17
WADENA         LGT SNOW  23  21  93 E12G20    29.96S WCI  12
DETROIT LAKES  MIX PCPN  27  23  86 E12G17    29.97R WCI  16
MOORHEAD       NOT AVBL
FERGUS FALLS   MIX PCPN  27  21  80 E16G28    29.90S WCI  14
ELBOW LAKE     FAIR      28  23  83 E23G33    29.89R WCI  14
MORRIS MN      CLOUDY    30  23  74 E28G35    29.84F WCI  16
STAPLES        LGT SNOW  23  21  93 E9        29.98S WCI  13
WHEATON        CLOUDY    32  27  80 E21G26    29.90S WCI  20
$$
  *****  WEATHER ELSEWHERE ACROSS MINNESOTA  *****

CITY           SKY/WX    TMP DP  RH WIND       PRES   REMARKS
DULUTH         CLOUDY    24  13  62 E10       30.09S WCI  14
INTRNTL FALLS  CLEAR     15   4  61 NE6       30.14R WCI   6
ELY            MOCLDY    10   7  85 CALM      30.13R
CLOQUET        CLOUDY    25   9  50 E6        30.08S WCI  18
BRAINERD       LGT SNOW  30  19  63 E8        30.02S WCI  22
HIBBING        CLOUDY    22   7  52 E6        30.09R WCI  14
ALEXANDRIA     MOCLDY    27  22  81 E23G30    29.90F WCI  12
SAINT CLOUD    CLOUDY    29  24  82 E9G20     29.96S WCI  20
MINNEAPOLIS    CLOUDY    33  16  49 E21G29    29.96F WCI  21
$$

  *****  WEATHER ACROSS SOUTH DAKOTA  *****

CITY           SKY/WX    TMP DP  RH WIND       PRES   REMARKS
SIOUX FALLS    CLOUDY    43  28  55 SE12      29.61F
BROOKINGS      NOT AVBL
WATERTOWN      CLOUDY    30  20  66 E21G29    29.70F WCI  17
HURON          CLOUDY    37  26  64 E18G25    29.61R
SISSETON         N/A     29  22  75 SE18G25   29.85S WCI  16
ABERDEEN       CLOUDY    31  19  61 E24G33    29.76R WCI  17
MITCHELL       CLOUDY    44  29  55 E8        29.54S
PIERRE         FLURRIES  35  26  69 NE21G29   29.64R WCI  24
MOBRIDGE       CLOUDY    30  22  72 NE18G30   29.69R WCI  18
RAPID CITY     CLOUDY    42  36  79 N21G28    29.66R
$$

  *****  SOME WEATHER IN NEARBY STATES *****

CITY           SKY/WX    TMP DP  RH WIND       PRES   REMARKS
GLASGOW MT     CLEAR     23  20  88 NE8       29.95R WCI  14
GREAT FALLS MT CLOUDY    34  33  96 N5        29.92R
CHEYENNE WY    PTCLDY    35  25  66 NW24G33   29.78R WCI  23
SCOTTSBLUFF NE PTCLDY    40  33  76 NW22G28   29.74R
OMAHA NE       MOCLDY    45  28  51 S24G32    29.75F
DES MOINES IA  CLOUDY    43  26  51 S14       29.91F
DAVENPORT IA   CLEAR     34  22  61 S17       30.13F WCI  23
CHICAGO IL     PTCLDY    29  19  66 S8        30.26R WCI  21
EAU CLAIRE WI  CLOUDY    29  23  78 E12       30.11R WCI  19
LA CROSSE WI   CLOUDY    34  17  50 SE12      30.11S
$$

  *****  SOME NATIONAL WEATHER *****

CITY           SKY/WX    TMP DP  RH WIND       PRES   REMARKS
LA GUARDIA NY  PTCLDY    32  17  54 NW22G32   30.22R WCI  19
RALEIGH NC     PTCLDY    33  21  61 VRB5      30.28R
ATLANTA GA     CLEAR     35  26  69 N8        30.20R
NEW ORLEANS LA CLEAR     48  34  58 NE8       30.19R
OKLAHOMA CITY  MOCLDY    46  28  49 S21G28    29.96F
ALBUQUERQUE NM PTCLDY    45   8  22 SW3       29.89S
SALT LAKE CITY CLOUDY    45  20  36 W5        29.98S
LOS ANGELES CA MOCLDY    58  52  80 CALM      29.86S
BOISE ID       PTCLDY    35  21  56 CALM      30.03R
SEATTLE WA     LGT RAIN  48  45  89 S12       30.07S
$$

*** WEATHER ACROSS MANITOBA...SASKATCHEWAN AND ONTARIO ***
                ***ONTARIO***

CITY           SKY/WX    TMP DP  RH WIND       PRES   REMARKS
GERALDTON      CLEAR      5  -6  61 W7        30.14R WCI  -7
THUNDER BAY    CLEAR      7   5  92 W3        30.23R
SIOUX LOOKOUT  PTCLDY    -6 -11  77 NE2       30.17R
TORONTO        PTCLDY    21  10  63 W8        30.36R WCI  12
BIG TROUT LK   CLEAR     -8 -13  77 NW9       30.19R WCI -25
PICKLE LAKE    CLEAR      0  -9  65 W6        30.16  WCI -12
DRYDEN         MOCLDY     9   0  66 E3        30.17R
KENORA         PTCLDY    14  -2  48 E6        30.16R WCI   5
$$
                *** MANITOBA***

CITY           SKY/WX    TMP DP  RH WIND       PRES   REMARKS
BRANDON        MOCLDY    18   7  62 NE17      30.15R WCI   2
DAUPHIN        CLEAR     12   7  79 E7        30.24R WCI   2
ISLAND LAKE    PTCLDY     0  -6  78 CALM      30.29R
PILOT MOUND      N/A     19  10  68 NE13        N/A  WCI   7
THE PAS        CLEAR      5  -6  61 NE8       30.32R WCI  -8
THOMPSON       PTCLDY    -8 -11  84 NW6       30.37R WCI -21
WINNIPEG       PTCLDY    16   7  67 NE7       30.19R WCI   6
LYNN LAKE      CLEAR     -9 -13  84 NW6       30.38R WCI -23
CHURCHILL      CRYSTALS  -6 -11  77 NW14      30.31R WCI -26
GILLAM         PTCLDY   -11 -17  77 W8        30.32R WCI -28
$$
                ***SASKATCHEWAN***

CITY           SKY/WX    TMP DP  RH WIND       PRES   REMARKS
ESTEVAN        FLURRIES  23  19  86 E17G25    30.03R WCI   9
KINDERSLEY     FLURRIES  21  19  93 E14       30.03R WCI   8
LLOYDMINSTER   CLOUDY    19  18  93 SE10      30.10R WCI   8
PRINCE ALBERT  PTCLDY     9   3  78 E6        30.21R WCI  -1
REGINA         FLURRIES  21  19  93 E10       30.06R WCI  10
YORKTON        CLOUDY    16   9  73 E9        30.16R WCI   4



USA.gov is the U.S. government's official web portal to all federal, state and local government web resources and services.